TimeAKDT,TemperatureF,Dew PointF,Humidity,Sea Level PressureIn,VisibilityMPH,Wind Direction,Wind SpeedMPH,Gust SpeedMPH,PrecipitationIn,Events,Conditions,WindDirDegrees,DateUTC
12:53 AM,14.0,10.0,84,30.01,10.0,NNW,3.5,-,N/A,,Clear,340,2012-10-29 08:53:00
1:53 AM,14.0,10.0,84,30.00,10.0,North,4.6,-,N/A,,Clear,10,2012-10-29 09:53:00
2:53 AM,16.0,12.0,84,29.99,10.0,North,3.5,-,N/A,,Clear,350,2012-10-29 10:53:00
3:53 AM,15.1,10.9,84,29.98,10.0,Calm,Calm,-,N/A,,Clear,0,2012-10-29 11:53:00
4:53 AM,16.0,12.9,88,29.97,10.0,Calm,Calm,-,N/A,,Clear,0,2012-10-29 12:53:00
5:53 AM,14.0,10.0,84,29.96,10.0,North,3.5,-,N/A,,Clear,350,2012-10-29 13:53:00
6:53 AM,15.1,12.0,88,29.95,10.0,North,3.5,-,N/A,,Clear,10,2012-10-29 14:53:00
7:53 AM,17.1,12.0,81,29.94,10.0,North,3.5,-,N/A,,Clear,360,2012-10-29 15:53:00
8:53 AM,16.0,12.0,84,29.93,10.0,NNE,3.5,-,N/A,,Partly Cloudy,30,2012-10-29 16:53:00
9:53 AM,16.0,12.0,84,29.92,10.0,North,3.5,-,N/A,,Partly Cloudy,10,2012-10-29 17:53:00
10:53 AM,21.9,17.1,82,29.92,10.0,North,6.9,-,N/A,,Mostly Cloudy,10,2012-10-29 18:53:00
11:53 AM,23.0,16.0,74,29.91,10.0,Calm,Calm,-,N/A,,Mostly Cloudy,0,2012-10-29 19:53:00
12:53 PM,27.0,16.0,63,29.90,10.0,Calm,Calm,-,N/A,,Scattered Clouds,0,2012-10-29 20:53:00
1:53 PM,28.9,18.0,64,29.89,10.0,Calm,Calm,-,N/A,,Scattered Clouds,0,2012-10-29 21:53:00
2:53 PM,30.9,17.1,57,29.87,10.0,Calm,Calm,-,N/A,,Scattered Clouds,0,2012-10-29 22:53:00
3:53 PM,30.9,17.1,57,29.86,10.0,Calm,Calm,-,N/A,,Mostly Cloudy,0,2012-10-29 23:53:00
4:53 PM,30.9,17.1,57,29.85,10.0,Calm,Calm,-,N/A,,Mostly Cloudy,0,2012-10-30 00:53:00
5:53 PM,28.0,16.0,61,29.83,10.0,Calm,Calm,-,N/A,,Mostly Cloudy,0,2012-10-30 01:53:00
6:53 PM,28.9,18.0,64,29.83,10.0,NNW,3.5,-,N/A,,Overcast,340,2012-10-30 02:53:00
7:53 PM,28.9,19.0,67,29.81,10.0,Calm,Calm,-,N/A,,Overcast,0,2012-10-30 03:53:00
8:53 PM,28.9,19.0,67,29.81,10.0,Calm,Calm,-,N/A,,Overcast,0,2012-10-30 04:53:00
9:35 PM,28.4,17.6,64,29.78,10.0,Calm,Calm,-,N/A,,Overcast,0,2012-10-30 05:35:00
9:53 PM,28.9,18.0,64,29.80,10.0,Calm,Calm,-,N/A,,Overcast,0,2012-10-30 05:53:00
10:23 PM,28.4,19.4,69,29.78,10.0,Calm,Calm,-,N/A,,Overcast,0,2012-10-30 06:23:00
10:53 PM,27.0,21.9,81,29.79,6.0,Calm,Calm,-,0.00,Snow,Light Snow,0,2012-10-30 06:53:00
11:53 PM,26.1,21.9,84,29.79,10.0,WSW,3.5,-,0.00,,Overcast,250,2012-10-30 07:53:00